Time,TemperatureF,DewpointF,PressureIn,WindDirection,WindDirectionDegrees,WindSpeedMPH,WindSpeedGustMPH,Humidity,HourlyPrecipIn,Conditions,Clouds,dailyrainin,SoftwareType,DateUTC
2013-07-17 00:00:00,80.3,74.7,30.17,NW,326,3.0,3.0,83,0.00,,,0.00,Wunderground v.1.15,2013-07-17 04:00:00,
2013-07-17 00:05:00,80.3,74.7,30.17,WNW,298,2.0,7.0,83,0.00,,,0.00,Wunderground v.1.15,2013-07-17 04:05:00,
2013-07-17 00:10:00,80.2,74.6,30.17,WSW,255,2.0,7.0,83,0.00,,,0.00,Wunderground v.1.15,2013-07-17 04:10:00,
2013-07-17 00:15:00,80.2,74.6,30.17,West,264,3.0,7.0,83,0.00,,,0.00,Wunderground v.1.15,2013-07-17 04:15:00,
2013-07-17 00:20:00,80.1,74.5,30.17,West,274,3.0,7.0,83,0.00,,,0.00,Wunderground v.1.15,2013-07-17 04:20:00,
2013-07-17 00:25:00,80.1,74.8,30.17,NW,304,3.0,7.0,84,0.00,,,0.00,Wunderground v.1.15,2013-07-17 04:25:00,
2013-07-17 00:30:00,80.1,74.8,30.16,West,273,3.0,7.0,84,0.00,,,0.00,Wunderground v.1.15,2013-07-17 04:30:00,
2013-07-17 00:35:00,79.9,74.6,30.17,West,274,3.0,7.0,84,0.00,,,0.00,Wunderground v.1.15,2013-07-17 04:35:00,
2013-07-17 00:40:00,79.8,74.5,30.16,NNW,333,2.0,2.0,84,0.00,,,0.00,Wunderground v.1.15,2013-07-17 04:40:00,
2013-07-17 00:45:00,79.8,74.9,30.16,WNW,284,2.0,3.0,85,0.00,,,0.00,Wunderground v.1.15,2013-07-17 04:45:00,
2013-07-17 00:50:00,79.7,74.8,30.16,SSE,162,2.0,2.0,85,0.00,,,0.00,Wunderground v.1.15,2013-07-17 04:50:00,
2013-07-17 00:55:00,79.6,74.7,30.16,WSW,253,2.0,4.0,85,0.00,,,0.00,Wunderground v.1.15,2013-07-17 04:55:00,
2013-07-17 01:00:00,79.6,74.7,30.16,NNW,329,2.0,6.0,85,0.00,,,0.00,Wunderground v.1.15,2013-07-17 05:00:00,
2013-07-17 01:05:00,79.6,74.7,30.16,NNW,328,4.0,6.0,85,0.00,,,0.00,Wunderground v.1.15,2013-07-17 05:05:00,
2013-07-17 01:10:00,79.6,74.7,30.16,SW,222,4.0,4.0,85,0.00,,,0.00,Wunderground v.1.15,2013-07-17 05:10:00,
2013-07-17 01:15:00,79.5,74.6,30.16,West,277,4.0,6.0,85,0.00,,,0.00,Wunderground v.1.15,2013-07-17 05:15:00,
2013-07-17 01:20:00,79.4,74.5,30.16,West,274,4.0,6.0,85,0.00,,,0.00,Wunderground v.1.15,2013-07-17 05:20:00,
2013-07-17 01:25:00,79.3,74.4,30.16,West,271,4.0,7.0,85,0.00,,,0.00,Wunderground v.1.15,2013-07-17 05:25:00,
2013-07-17 01:30:00,79.2,74.3,30.15,WNW,288,5.0,5.0,85,0.00,,,0.00,Wunderground v.1.15,2013-07-17 05:30:00,
2013-07-17 01:35:00,79.0,74.5,30.15,WNW,285,5.0,6.0,86,0.00,,,0.00,Wunderground v.1.15,2013-07-17 05:35:00,
2013-07-17 01:40:00,78.8,74.3,30.15,WNW,284,5.0,6.0,86,0.00,,,0.00,Wunderground v.1.15,2013-07-17 05:40:00,
2013-07-17 01:45:00,78.7,74.2,30.15,NW,312,5.0,6.0,86,0.00,,,0.00,Wunderground v.1.15,2013-07-17 05:45:00,
2013-07-17 01:50:00,78.6,74.1,30.15,WSW,245,5.0,5.0,86,0.00,,,0.00,Wunderground v.1.15,2013-07-17 05:50:00,
2013-07-17 01:55:00,78.6,74.1,30.14,West,274,5.0,6.0,86,0.00,,,0.00,Wunderground v.1.15,2013-07-17 05:55:00,
2013-07-17 02:00:00,78.6,74.1,30.15,West,261,5.0,10.0,86,0.00,,,0.00,Wunderground v.1.15,2013-07-17 06:00:00,
2013-07-17 02:05:00,78.6,74.1,30.15,West,280,6.0,10.0,86,0.00,,,0.00,Wunderground v.1.15,2013-07-17 06:05:00,
2013-07-17 02:10:00,78.7,74.2,30.15,West,281,5.0,10.0,86,0.00,,,0.00,Wunderground v.1.15,2013-07-17 06:10:00,
2013-07-17 02:15:00,78.6,74.1,30.15,WNW,286,5.0,10.0,86,0.00,,,0.00,Wunderground v.1.15,2013-07-17 06:15:00,
2013-07-17 02:20:00,78.5,74.0,30.15,NW,326,4.0,4.0,86,0.00,,,0.00,Wunderground v.1.15,2013-07-17 06:20:00,
2013-07-17 02:25:00,78.4,73.9,30.15,WNW,297,4.0,7.0,86,0.00,,,0.00,Wunderground v.1.15,2013-07-17 06:25:00,
2013-07-17 02:30:00,78.2,73.7,30.15,WNW,283,5.0,10.0,86,0.00,,,0.00,Wunderground v.1.15,2013-07-17 06:30:00,
2013-07-17 02:35:00,78.2,73.7,30.15,SSW,208,5.0,10.0,86,0.00,,,0.00,Wunderground v.1.15,2013-07-17 06:35:00,
2013-07-17 02:40:00,78.1,73.6,30.15,West,260,5.0,10.0,86,0.00,,,0.00,Wunderground v.1.15,2013-07-17 06:40:00,
2013-07-17 02:45:00,78.1,73.6,30.15,WNW,284,5.0,10.0,86,0.00,,,0.00,Wunderground v.1.15,2013-07-17 06:45:00,
2013-07-17 02:50:00,78.2,73.7,30.15,NW,316,5.0,5.0,86,0.00,,,0.00,Wunderground v.1.15,2013-07-17 06:50:00,
2013-07-17 02:55:00,78.1,73.6,30.15,NW,305,4.0,10.0,86,0.00,,,0.00,Wunderground v.1.15,2013-07-17 06:55:00,
2013-07-17 03:00:00,78.1,73.6,30.14,WNW,295,4.0,9.0,86,0.00,,,0.00,Wunderground v.1.15,2013-07-17 07:00:00,
2013-07-17 03:05:00,78.1,73.6,30.15,NNW,335,4.0,9.0,86,0.00,,,0.00,Wunderground v.1.15,2013-07-17 07:05:00,
2013-07-17 03:10:00,78.1,73.6,30.15,West,280,4.0,9.0,86,0.00,,,0.00,Wunderground v.1.15,2013-07-17 07:10:00,
2013-07-17 03:15:00,78.1,73.2,30.14,NW,319,3.0,9.0,85,0.00,,,0.00,Wunderground v.1.15,2013-07-17 07:15:00,
2013-07-17 03:20:00,78.1,73.2,30.14,NW,308,2.0,9.0,85,0.00,,,0.00,Wunderground v.1.15,2013-07-17 07:20:00,
2013-07-17 03:25:00,78.0,73.1,30.14,SW,236,2.0,9.0,85,0.00,,,0.00,Wunderground v.1.15,2013-07-17 07:25:00,
2013-07-17 03:30:00,78.2,73.3,30.13,WNW,294,4.0,9.0,85,0.00,,,0.00,Wunderground v.1.15,2013-07-17 07:30:00,
2013-07-17 03:35:00,78.3,73.4,30.14,WNW,294,4.0,9.0,85,0.00,,,0.00,Wunderground v.1.15,2013-07-17 07:35:00,
2013-07-17 03:40:00,78.2,73.3,30.14,WNW,294,5.0,9.0,85,0.00,,,0.00,Wunderground v.1.15,2013-07-17 07:40:00,
2013-07-17 03:45:00,78.1,73.2,30.14,NW,319,5.0,9.0,85,0.00,,,0.00,Wunderground v.1.15,2013-07-17 07:45:00,
2013-07-17 03:50:00,77.9,73.0,30.15,NE,39,5.0,9.0,85,0.00,,,0.00,Wunderground v.1.15,2013-07-17 07:50:00,
2013-07-17 03:55:00,77.2,72.7,30.15,NNE,27,5.0,9.0,86,0.00,,,0.00,Wunderground v.1.15,2013-07-17 07:55:00,
2013-07-17 04:00:00,76.9,72.7,30.14,West,276,5.0,5.0,87,0.00,,,0.00,Wunderground v.1.15,2013-07-17 08:00:00,
2013-07-17 04:05:00,76.8,72.6,30.15,North,354,6.0,6.0,87,0.00,,,0.00,Wunderground v.1.15,2013-07-17 08:05:00,
2013-07-17 04:10:00,76.7,72.5,30.15,NNE,17,5.0,8.0,87,0.00,,,0.00,Wunderground v.1.15,2013-07-17 08:10:00,
2013-07-17 04:20:00,76.8,72.6,30.15,North,1,5.0,8.0,87,0.00,,,0.00,Wunderground v.1.15,2013-07-17 08:20:00,
2013-07-17 04:25:00,76.9,72.7,30.14,NNW,348,4.0,8.0,87,0.00,,,0.00,Wunderground v.1.15,2013-07-17 08:25:00,
2013-07-17 04:30:00,77.0,72.8,30.14,NNW,330,3.0,8.0,87,0.00,,,0.00,Wunderground v.1.15,2013-07-17 08:30:00,
2013-07-17 04:35:00,77.0,72.8,30.13,North,350,3.0,8.0,87,0.00,,,0.00,Wunderground v.1.15,2013-07-17 08:35:00,
2013-07-17 04:40:00,77.1,72.9,30.14,NNE,16,2.0,8.0,87,0.00,,,0.00,Wunderground v.1.15,2013-07-17 08:40:00,
2013-07-17 04:45:00,77.1,72.6,30.14,NW,325,3.0,8.0,86,0.00,,,0.00,Wunderground v.1.15,2013-07-17 08:45:00,
2013-07-17 04:50:00,77.0,72.8,30.14,NW,323,3.0,8.0,87,0.00,,,0.00,Wunderground v.1.15,2013-07-17 08:50:00,
2013-07-17 04:55:00,77.0,72.8,30.14,NNW,341,2.0,8.0,87,0.00,,,0.00,Wunderground v.1.15,2013-07-17 08:55:00,
2013-07-17 05:00:00,77.1,72.9,30.13,NNW,328,2.0,11.0,87,0.00,,,0.00,Wunderground v.1.15,2013-07-17 09:00:00,
2013-07-17 05:05:00,77.1,72.9,30.13,NW,321,2.0,11.0,87,0.00,,,0.00,Wunderground v.1.15,2013-07-17 09:05:00,
2013-07-17 05:10:00,77.1,72.9,30.13,NW,304,3.0,11.0,87,0.00,,,0.00,Wunderground v.1.15,2013-07-17 09:10:00,
2013-07-17 05:15:00,77.0,72.8,30.14,WNW,300,3.0,11.0,87,0.00,,,0.00,Wunderground v.1.15,2013-07-17 09:15:00,
2013-07-17 05:20:00,77.0,72.8,30.14,NW,309,3.0,3.0,87,0.00,,,0.00,Wunderground v.1.15,2013-07-17 09:20:00,
2013-07-17 05:25:00,77.0,72.8,30.13,NW,323,2.0,4.0,87,0.00,,,0.00,Wunderground v.1.15,2013-07-17 09:25:00,
2013-07-17 05:30:00,77.0,72.8,30.13,NW,318,2.0,11.0,87,0.00,,,0.00,Wunderground v.1.15,2013-07-17 09:30:00,
2013-07-17 05:35:00,76.9,72.7,30.14,North,349,2.0,11.0,87,0.00,,,0.00,Wunderground v.1.15,2013-07-17 09:35:00,
2013-07-17 05:40:00,76.8,72.6,30.14,NNW,339,2.0,11.0,87,0.00,,,0.00,Wunderground v.1.15,2013-07-17 09:40:00,
2013-07-17 05:45:00,76.7,72.5,30.14,NW,323,2.0,11.0,87,0.00,,,0.00,Wunderground v.1.15,2013-07-17 09:45:00,
2013-07-17 05:50:00,76.6,72.4,30.15,WNW,296,1.0,11.0,87,0.00,,,0.00,Wunderground v.1.15,2013-07-17 09:50:00,
2013-07-17 05:55:00,76.5,72.3,30.15,West,276,1.0,11.0,87,0.00,,,0.00,Wunderground v.1.15,2013-07-17 09:55:00,
2013-07-17 06:00:00,76.6,72.4,30.15,NW,318,2.0,6.0,87,0.00,,,0.00,Wunderground v.1.15,2013-07-17 10:00:00,
2013-07-17 06:05:00,76.6,72.4,30.15,West,266,2.0,6.0,87,0.00,,,0.00,Wunderground v.1.15,2013-07-17 10:05:00,
2013-07-17 06:10:00,76.7,72.5,30.15,West,270,2.0,6.0,87,0.00,,,0.00,Wunderground v.1.15,2013-07-17 10:10:00,
2013-07-17 06:15:00,76.6,72.4,30.15,WNW,285,1.0,6.0,87,0.00,,,0.00,Wunderground v.1.15,2013-07-17 10:15:00,
2013-07-17 06:20:00,76.7,72.5,30.15,WNW,298,2.0,6.0,87,0.00,,,0.00,Wunderground v.1.15,2013-07-17 10:20:00,
2013-07-17 06:25:00,76.9,73.1,30.15,WNW,288,4.0,6.0,88,0.00,,,0.00,Wunderground v.1.15,2013-07-17 10:25:00,
2013-07-17 06:30:00,77.0,72.8,30.15,WNW,301,4.0,4.0,87,0.00,,,0.00,Wunderground v.1.15,2013-07-17 10:30:00,
2013-07-17 06:35:00,77.2,73.0,30.15,NW,315,4.0,6.0,87,0.00,,,0.00,Wunderground v.1.15,2013-07-17 10:35:00,
2013-07-17 06:40:00,77.2,73.0,30.16,NW,314,4.0,4.0,87,0.00,,,0.00,Wunderground v.1.15,2013-07-17 10:40:00,
2013-07-17 06:45:00,77.0,72.8,30.16,NW,311,3.0,6.0,87,0.00,,,0.00,Wunderground v.1.15,2013-07-17 10:45:00,
2013-07-17 06:50:00,77.0,72.8,30.16,NW,305,3.0,6.0,87,0.00,,,0.00,Wunderground v.1.15,2013-07-17 10:50:00,
2013-07-17 06:55:00,77.0,72.8,30.16,NW,314,4.0,6.0,87,0.00,,,0.00,Wunderground v.1.15,2013-07-17 10:55:00,
2013-07-17 07:00:00,77.1,73.3,30.16,NW,316,4.0,4.0,88,0.00,,,0.00,Wunderground v.1.15,2013-07-17 11:00:00,
2013-07-17 07:10:00,76.9,72.7,30.15,West,270,4.0,8.0,87,0.00,,,0.00,Wunderground v.1.15,2013-07-17 11:10:00,
2013-07-17 07:15:00,76.9,73.1,30.16,NW,305,4.0,8.0,88,0.00,,,0.00,Wunderground v.1.15,2013-07-17 11:15:00,
2013-07-17 07:20:00,76.9,73.1,30.16,WNW,297,4.0,8.0,88,0.00,,,0.00,Wunderground v.1.15,2013-07-17 11:20:00,
2013-07-17 07:25:00,76.9,73.1,30.16,NW,308,4.0,8.0,88,0.00,,,0.00,Wunderground v.1.15,2013-07-17 11:25:00,
2013-07-17 07:35:00,76.9,73.1,30.15,NW,312,3.0,8.0,88,0.00,,,0.00,Wunderground v.1.15,2013-07-17 11:35:00,
2013-07-17 07:40:00,77.0,73.2,30.16,NW,309,2.0,8.0,88,0.00,,,0.00,Wunderground v.1.15,2013-07-17 11:40:00,
2013-07-17 07:45:00,76.9,73.1,30.16,NW,318,2.0,8.0,88,0.00,,,0.00,Wunderground v.1.15,2013-07-17 11:45:00,
2013-07-17 07:50:00,77.0,73.2,30.15,WNW,288,2.0,2.0,88,0.00,,,0.00,Wunderground v.1.15,2013-07-17 11:50:00,
2013-07-17 07:55:00,77.1,73.3,30.15,WNW,295,2.0,8.0,88,0.00,,,0.00,Wunderground v.1.15,2013-07-17 11:55:00,
2013-07-17 08:00:00,77.3,73.5,30.16,NNW,343,2.0,7.0,88,0.00,,,0.00,Wunderground v.1.15,2013-07-17 12:00:00,
2013-07-17 08:05:00,77.3,73.5,30.16,North,354,3.0,7.0,88,0.00,,,0.00,Wunderground v.1.15,2013-07-17 12:05:00,
2013-07-17 08:10:00,77.5,73.7,30.16,NNW,331,4.0,7.0,88,0.00,,,0.00,Wunderground v.1.15,2013-07-17 12:10:00,
2013-07-17 08:15:00,78.0,73.8,30.16,NW,321,4.0,7.0,87,0.00,,,0.00,Wunderground v.1.15,2013-07-17 12:15:00,
2013-07-17 08:20:00,78.2,74.0,30.16,NW,326,6.0,6.0,87,0.00,,,0.00,Wunderground v.1.15,2013-07-17 12:20:00,
2013-07-17 08:25:00,78.5,74.3,30.15,North,8,6.0,7.0,87,0.00,,,0.00,Wunderground v.1.15,2013-07-17 12:25:00,
2013-07-17 08:30:00,78.7,74.2,30.16,NNW,343,4.0,7.0,86,0.00,,,0.00,Wunderground v.1.15,2013-07-17 12:30:00,
2013-07-17 08:35:00,79.0,74.8,30.16,NNW,346,3.0,7.0,87,0.00,,,0.00,Wunderground v.1.15,2013-07-17 12:35:00,
2013-07-17 08:40:00,79.6,75.0,30.17,NNE,20,3.0,7.0,86,0.00,,,0.00,Wunderground v.1.15,2013-07-17 12:40:00,
2013-07-17 08:45:00,80.2,75.6,30.17,NNW,344,3.0,7.0,86,0.00,,,0.00,Wunderground v.1.15,2013-07-17 12:45:00,
2013-07-17 08:50:00,80.9,76.0,30.17,North,1,3.0,3.0,85,0.00,,,0.00,Wunderground v.1.15,2013-07-17 12:50:00,
2013-07-17 08:55:00,81.6,76.3,30.17,NNW,338,3.0,7.0,84,0.00,,,0.00,Wunderground v.1.15,2013-07-17 12:55:00,
2013-07-17 09:00:00,82.2,76.5,30.18,North,358,3.0,11.0,83,0.00,,,0.00,Wunderground v.1.15,2013-07-17 13:00:00,
2013-07-17 09:10:00,82.1,76.1,30.17,NW,313,5.0,5.0,82,0.00,,,0.00,Wunderground v.1.15,2013-07-17 13:10:00,
2013-07-17 09:15:00,82.1,76.4,30.18,NNW,329,6.0,6.0,83,0.00,,,0.00,Wunderground v.1.15,2013-07-17 13:15:00,
2013-07-17 09:20:00,82.3,76.6,30.18,NNE,20,5.0,5.0,83,0.00,,,0.00,Wunderground v.1.15,2013-07-17 13:20:00,
2013-07-17 09:25:00,82.6,76.2,30.18,NNW,329,5.0,8.0,81,0.00,,,0.00,Wunderground v.1.15,2013-07-17 13:25:00,
2013-07-17 09:30:00,82.5,76.1,30.18,NNW,330,6.0,11.0,81,0.00,,,0.00,Wunderground v.1.15,2013-07-17 13:30:00,
2013-07-17 09:35:00,82.9,76.8,30.18,North,353,6.0,11.0,82,0.00,,,0.00,Wunderground v.1.15,2013-07-17 13:35:00,
2013-07-17 09:40:00,83.2,76.0,30.17,NNW,330,5.0,5.0,79,0.00,,,0.00,Wunderground v.1.15,2013-07-17 13:40:00,
2013-07-17 09:45:00,83.2,76.4,30.17,NW,312,6.0,6.0,80,0.00,,,0.00,Wunderground v.1.15,2013-07-17 13:45:00,
2013-07-17 09:50:00,83.5,76.3,30.17,NNW,333,6.0,11.0,79,0.00,,,0.00,Wunderground v.1.15,2013-07-17 13:50:00,
2013-07-17 09:55:00,83.6,76.4,30.18,NW,316,6.0,11.0,79,0.00,,,0.00,Wunderground v.1.15,2013-07-17 13:55:00,
2013-07-17 10:00:00,83.9,76.7,30.17,North,356,5.0,5.0,79,0.00,,,0.00,Wunderground v.1.15,2013-07-17 14:00:00,
2013-07-17 10:05:00,84.1,76.9,30.17,NW,304,4.0,11.0,79,0.00,,,0.00,Wunderground v.1.15,2013-07-17 14:05:00,
2013-07-17 10:10:00,84.1,75.7,30.17,North,356,5.0,5.0,76,0.00,,,0.00,Wunderground v.1.15,2013-07-17 14:10:00,
2013-07-17 10:15:00,83.7,75.7,30.17,NW,314,5.0,11.0,77,0.00,,,0.00,Wunderground v.1.15,2013-07-17 14:15:00,
2013-07-17 10:20:00,83.8,76.2,30.17,NNE,15,5.0,11.0,78,0.00,,,0.00,Wunderground v.1.15,2013-07-17 14:20:00,
2013-07-17 10:25:00,84.0,76.4,30.17,NNE,27,5.0,11.0,78,0.00,,,0.00,Wunderground v.1.15,2013-07-17 14:25:00,
2013-07-17 10:30:00,84.7,77.1,30.16,NNW,335,4.0,11.0,78,0.00,,,0.00,Wunderground v.1.15,2013-07-17 14:30:00,
2013-07-17 10:35:00,84.8,76.4,30.16,North,9,5.0,11.0,76,0.00,,,0.00,Wunderground v.1.15,2013-07-17 14:35:00,
2013-07-17 10:40:00,85.1,76.7,30.16,ENE,59,5.0,11.0,76,0.00,,,0.00,Wunderground v.1.15,2013-07-17 14:40:00,
2013-07-17 10:45:00,85.2,76.4,30.16,ENE,68,5.0,11.0,75,0.00,,,0.00,Wunderground v.1.15,2013-07-17 14:45:00,
2013-07-17 10:50:00,85.7,77.3,30.16,NNW,342,5.0,5.0,76,0.00,,,0.00,Wunderground v.1.15,2013-07-17 14:50:00,
2013-07-17 10:55:00,86.0,77.1,30.16,NNE,17,5.0,6.0,75,0.00,,,0.00,Wunderground v.1.15,2013-07-17 14:55:00,
2013-07-17 11:00:00,86.1,76.8,30.15,ENE,58,6.0,10.0,74,0.00,,,0.00,Wunderground v.1.15,2013-07-17 15:00:00,
2013-07-17 11:10:00,86.6,77.3,30.15,NE,34,6.0,6.0,74,0.00,,,0.00,Wunderground v.1.15,2013-07-17 15:10:00,
2013-07-17 11:15:00,87.3,77.2,30.15,NNE,30,6.0,7.0,72,0.00,,,0.00,Wunderground v.1.15,2013-07-17 15:15:00,
2013-07-17 11:20:00,87.2,76.2,30.15,ENE,68,6.0,10.0,70,0.00,,,0.00,Wunderground v.1.15,2013-07-17 15:20:00,
2013-07-17 11:25:00,87.6,76.6,30.15,North,356,6.0,10.0,70,0.00,,,0.00,Wunderground v.1.15,2013-07-17 15:25:00,
2013-07-17 11:30:00,87.8,76.4,30.15,ENE,57,6.0,6.0,69,0.00,,,0.00,Wunderground v.1.15,2013-07-17 15:30:00,
2013-07-17 11:35:00,87.9,76.9,30.15,East,89,6.0,10.0,70,0.00,,,0.00,Wunderground v.1.15,2013-07-17 15:35:00,
2013-07-17 11:40:00,88.2,76.7,30.15,NE,35,5.0,5.0,69,0.00,,,0.00,Wunderground v.1.15,2013-07-17 15:40:00,
2013-07-17 11:45:00,88.2,76.7,30.15,ENE,65,6.0,7.0,69,0.00,,,0.00,Wunderground v.1.15,2013-07-17 15:45:00,
2013-07-17 11:50:00,87.9,76.9,30.15,East,85,5.0,10.0,70,0.00,,,0.00,Wunderground v.1.15,2013-07-17 15:50:00,
2013-07-17 11:55:00,87.7,78.0,30.15,SE,129,5.0,10.0,73,0.00,,,0.00,Wunderground v.1.15,2013-07-17 15:55:00,
2013-07-17 12:00:00,86.4,77.5,30.15,ESE,111,5.0,13.0,75,0.00,,,0.00,Wunderground v.1.15,2013-07-17 16:00:00,
2013-07-17 12:05:00,86.0,77.5,30.15,ESE,121,5.0,13.0,76,0.00,,,0.00,Wunderground v.1.15,2013-07-17 16:05:00,
2013-07-17 12:10:00,86.2,77.7,30.15,SSE,162,4.0,4.0,76,0.00,,,0.00,Wunderground v.1.15,2013-07-17 16:10:00,
2013-07-17 12:15:00,86.3,77.8,30.15,ESE,103,4.0,13.0,76,0.00,,,0.00,Wunderground v.1.15,2013-07-17 16:15:00,
2013-07-17 12:20:00,86.5,77.6,30.15,SE,136,3.0,13.0,75,0.00,,,0.00,Wunderground v.1.15,2013-07-17 16:20:00,
2013-07-17 12:25:00,87.3,78.4,30.14,SE,139,3.0,13.0,75,0.00,,,0.00,Wunderground v.1.15,2013-07-17 16:25:00,
2013-07-17 12:30:00,87.0,77.7,30.14,ESE,108,3.0,13.0,74,0.00,,,0.00,Wunderground v.1.15,2013-07-17 16:30:00,
2013-07-17 12:35:00,86.8,78.3,30.14,SE,129,4.0,13.0,76,0.00,,,0.00,Wunderground v.1.15,2013-07-17 16:35:00,
2013-07-17 12:40:00,86.6,78.5,30.15,South,181,3.0,3.0,77,0.00,,,0.00,Wunderground v.1.15,2013-07-17 16:40:00,
2013-07-17 12:45:00,87.2,79.1,30.15,SE,133,3.0,13.0,77,0.00,,,0.00,Wunderground v.1.15,2013-07-17 16:45:00,
2013-07-17 12:50:00,87.5,79.4,30.15,SSW,192,3.0,3.0,77,0.00,,,0.00,Wunderground v.1.15,2013-07-17 16:50:00,
2013-07-17 12:55:00,87.7,79.2,30.15,SE,130,3.0,13.0,76,0.00,,,0.00,Wunderground v.1.15,2013-07-17 16:55:00,
2013-07-17 13:00:00,88.4,79.9,30.15,SSW,193,3.0,7.0,76,0.00,,,0.00,Wunderground v.1.15,2013-07-17 17:00:00,
2013-07-17 13:05:00,88.6,79.2,30.15,SE,136,3.0,7.0,74,0.00,,,0.00,Wunderground v.1.15,2013-07-17 17:05:00,
2013-07-17 13:10:00,88.2,79.3,30.15,SSW,192,3.0,3.0,75,0.00,,,0.00,Wunderground v.1.15,2013-07-17 17:10:00,
2013-07-17 13:15:00,88.1,79.6,30.15,SSE,160,3.0,4.0,76,0.00,,,0.00,Wunderground v.1.15,2013-07-17 17:15:00,
2013-07-17 13:20:00,87.7,79.2,30.15,SE,131,3.0,7.0,76,0.00,,,0.00,Wunderground v.1.15,2013-07-17 17:20:00,
2013-07-17 13:25:00,87.3,79.2,30.15,SE,134,4.0,7.0,77,0.00,,,0.00,Wunderground v.1.15,2013-07-17 17:25:00,
2013-07-17 13:30:00,86.8,78.7,30.15,South,179,4.0,4.0,77,0.00,,,0.00,Wunderground v.1.15,2013-07-17 17:30:00,
2013-07-17 13:35:00,86.9,78.8,30.15,South,170,4.0,7.0,77,0.00,,,0.00,Wunderground v.1.15,2013-07-17 17:35:00,
2013-07-17 13:40:00,86.7,78.6,30.15,SSW,194,3.0,3.0,77,0.00,,,0.00,Wunderground v.1.15,2013-07-17 17:40:00,
2013-07-17 13:45:00,86.2,78.5,30.15,SE,144,3.0,4.0,78,0.00,,,0.00,Wunderground v.1.15,2013-07-17 17:45:00,
2013-07-17 13:50:00,85.7,78.4,30.15,SSE,150,4.0,4.0,79,0.00,,,0.00,Wunderground v.1.15,2013-07-17 17:50:00,
2013-07-17 13:55:00,85.1,78.2,30.14,SE,136,4.0,7.0,80,0.00,,,0.00,Wunderground v.1.15,2013-07-17 17:55:00,
2013-07-17 14:00:00,84.7,77.8,30.14,SSE,160,4.0,7.0,80,0.00,,,0.00,Wunderground v.1.15,2013-07-17 18:00:00,
2013-07-17 14:05:00,84.6,77.7,30.14,SSE,165,3.0,7.0,80,0.00,,,0.00,Wunderground v.1.15,2013-07-17 18:05:00,
2013-07-17 14:10:00,84.6,78.1,30.14,SSE,163,3.0,3.0,81,0.00,,,0.00,Wunderground v.1.15,2013-07-17 18:10:00,
2013-07-17 14:15:00,84.8,77.9,30.13,SE,136,3.0,7.0,80,0.00,,,0.00,Wunderground v.1.15,2013-07-17 18:15:00,
2013-07-17 14:20:00,85.0,78.1,30.13,SE,134,2.0,7.0,80,0.00,,,0.00,Wunderground v.1.15,2013-07-17 18:20:00,
2013-07-17 14:25:00,84.8,77.9,30.13,South,169,3.0,7.0,80,0.00,,,0.00,Wunderground v.1.15,2013-07-17 18:25:00,
2013-07-17 14:30:00,84.7,78.2,30.13,SSE,149,3.0,7.0,81,0.00,,,0.00,Wunderground v.1.15,2013-07-17 18:30:00,
2013-07-17 14:35:00,84.5,78.0,30.13,SE,130,3.0,7.0,81,0.00,,,0.00,Wunderground v.1.15,2013-07-17 18:35:00,
2013-07-17 14:40:00,84.5,78.0,30.13,SSE,166,3.0,7.0,81,0.00,,,0.00,Wunderground v.1.15,2013-07-17 18:40:00,
2013-07-17 14:45:00,84.8,78.3,30.12,ESE,111,3.0,7.0,81,0.00,,,0.00,Wunderground v.1.15,2013-07-17 18:45:00,
2013-07-17 14:50:00,85.1,78.6,30.12,ESE,121,3.0,7.0,81,0.00,,,0.00,Wunderground v.1.15,2013-07-17 18:50:00,
2013-07-17 14:55:00,85.4,78.9,30.12,East,86,2.0,7.0,81,0.00,,,0.00,Wunderground v.1.15,2013-07-17 18:55:00,
2013-07-17 15:00:00,85.6,79.1,30.12,SSE,148,3.0,6.0,81,0.00,,,0.00,Wunderground v.1.15,2013-07-17 19:00:00,
2013-07-17 15:10:00,85.5,79.0,30.12,South,179,3.0,6.0,81,0.00,,,0.00,Wunderground v.1.15,2013-07-17 19:10:00,
2013-07-17 15:15:00,85.6,79.1,30.12,NE,49,3.0,6.0,81,0.00,,,0.00,Wunderground v.1.15,2013-07-17 19:15:00,
2013-07-17 15:20:00,85.8,78.9,30.12,South,184,3.0,6.0,80,0.00,,,0.00,Wunderground v.1.15,2013-07-17 19:20:00,
2013-07-17 15:25:00,85.9,78.6,30.12,South,187,3.0,6.0,79,0.00,,,0.00,Wunderground v.1.15,2013-07-17 19:25:00,
2013-07-17 15:30:00,86.2,78.9,30.11,SSE,149,3.0,6.0,79,0.00,,,0.00,Wunderground v.1.15,2013-07-17 19:30:00,
2013-07-17 15:40:00,86.2,78.5,30.11,ESE,116,3.0,6.0,78,0.00,,,0.00,Wunderground v.1.15,2013-07-17 19:40:00,
2013-07-17 15:45:00,86.0,78.3,30.11,SSE,161,3.0,6.0,78,0.00,,,0.00,Wunderground v.1.15,2013-07-17 19:45:00,
2013-07-17 15:50:00,85.8,78.5,30.11,SE,134,3.0,6.0,79,0.00,,,0.00,Wunderground v.1.15,2013-07-17 19:50:00,
2013-07-17 15:55:00,85.7,78.4,30.11,South,169,3.0,6.0,79,0.00,,,0.00,Wunderground v.1.15,2013-07-17 19:55:00,
2013-07-17 16:00:00,85.8,78.1,30.11,South,189,3.0,7.0,78,0.00,,,0.00,Wunderground v.1.15,2013-07-17 20:00:00,
2013-07-17 16:05:00,85.9,78.2,30.11,SSW,194,3.0,7.0,78,0.00,,,0.00,Wunderground v.1.15,2013-07-17 20:05:00,
2013-07-17 16:10:00,85.4,77.8,30.11,SE,141,3.0,7.0,78,0.00,,,0.00,Wunderground v.1.15,2013-07-17 20:10:00,
2013-07-17 16:15:00,85.3,78.0,30.10,South,179,4.0,7.0,79,0.00,,,0.00,Wunderground v.1.15,2013-07-17 20:15:00,
2013-07-17 16:20:00,85.0,77.8,30.10,SSE,148,4.0,7.0,79,0.00,,,0.00,Wunderground v.1.15,2013-07-17 20:20:00,
2013-07-17 16:25:00,84.6,77.7,30.10,ESE,107,5.0,7.0,80,0.00,,,0.00,Wunderground v.1.15,2013-07-17 20:25:00,
2013-07-17 16:30:00,85.0,78.5,30.10,SSE,153,4.0,4.0,81,0.00,,,0.00,Wunderground v.1.15,2013-07-17 20:30:00,
2013-07-17 16:35:00,85.3,78.4,30.10,ESE,115,3.0,7.0,80,0.00,,,0.00,Wunderground v.1.15,2013-07-17 20:35:00,
2013-07-17 16:40:00,85.3,78.4,30.10,South,178,3.0,7.0,80,0.00,,,0.00,Wunderground v.1.15,2013-07-17 20:40:00,
2013-07-17 16:45:00,85.5,78.2,30.10,South,190,3.0,7.0,79,0.00,,,0.00,Wunderground v.1.15,2013-07-17 20:45:00,
2013-07-17 16:50:00,85.6,78.3,30.09,East,94,3.0,3.0,79,0.00,,,0.00,Wunderground v.1.15,2013-07-17 20:50:00,
2013-07-17 16:55:00,85.8,78.5,30.09,ESE,119,2.0,7.0,79,0.00,,,0.00,Wunderground v.1.15,2013-07-17 20:55:00,
2013-07-17 17:00:00,85.7,78.4,30.09,SSW,194,2.0,8.0,79,0.00,,,0.00,Wunderground v.1.15,2013-07-17 21:00:00,
2013-07-17 17:10:00,85.8,78.9,30.09,ESE,103,2.0,2.0,80,0.00,,,0.00,Wunderground v.1.15,2013-07-17 21:10:00,
2013-07-17 17:15:00,86.0,79.1,30.09,SSE,156,1.0,8.0,80,0.00,,,0.00,Wunderground v.1.15,2013-07-17 21:15:00,
2013-07-17 17:20:00,86.1,78.8,30.09,SSE,150,2.0,8.0,79,0.00,,,0.00,Wunderground v.1.15,2013-07-17 21:20:00,
2013-07-17 17:25:00,85.6,78.7,30.09,SW,222,3.0,8.0,80,0.00,,,0.00,Wunderground v.1.15,2013-07-17 21:25:00,
2013-07-17 17:30:00,85.0,78.5,30.09,SSW,199,5.0,8.0,81,0.00,,,0.00,Wunderground v.1.15,2013-07-17 21:30:00,
2013-07-17 17:35:00,84.8,78.7,30.09,SSW,203,6.0,8.0,82,0.00,,,0.00,Wunderground v.1.15,2013-07-17 21:35:00,
2013-07-17 17:40:00,84.7,78.2,30.08,South,171,5.0,8.0,81,0.00,,,0.00,Wunderground v.1.15,2013-07-17 21:40:00,
2013-07-17 17:45:00,84.6,78.1,30.08,SSE,157,5.0,8.0,81,0.00,,,0.00,Wunderground v.1.15,2013-07-17 21:45:00,
2013-07-17 17:50:00,84.5,78.0,30.08,SSW,200,5.0,5.0,81,0.00,,,0.00,Wunderground v.1.15,2013-07-17 21:50:00,
2013-07-17 17:55:00,84.5,77.6,30.08,South,187,4.0,8.0,80,0.00,,,0.00,Wunderground v.1.15,2013-07-17 21:55:00,
2013-07-17 18:00:00,84.5,77.3,30.08,SSW,201,4.0,8.0,79,0.00,,,0.00,Wunderground v.1.15,2013-07-17 22:00:00,
2013-07-17 18:05:00,84.5,77.3,30.08,SSW,193,4.0,8.0,79,0.00,,,0.00,Wunderground v.1.15,2013-07-17 22:05:00,
2013-07-17 18:10:00,84.8,77.6,30.09,ENE,71,4.0,4.0,79,0.00,,,0.00,Wunderground v.1.15,2013-07-17 22:10:00,
2013-07-17 18:15:00,85.0,77.0,30.09,South,174,4.0,5.0,77,0.00,,,0.00,Wunderground v.1.15,2013-07-17 22:15:00,
2013-07-17 18:20:00,85.0,77.0,30.09,SW,219,5.0,5.0,77,0.00,,,0.00,Wunderground v.1.15,2013-07-17 22:20:00,
2013-07-17 18:25:00,85.1,76.7,30.08,SW,226,4.0,8.0,76,0.00,,,0.00,Wunderground v.1.15,2013-07-17 22:25:00,
2013-07-17 18:30:00,85.3,76.5,30.09,SSW,201,4.0,8.0,75,0.00,,,0.00,Wunderground v.1.15,2013-07-17 22:30:00,
2013-07-17 18:35:00,85.4,76.6,30.09,SW,219,4.0,8.0,75,0.00,,,0.00,Wunderground v.1.15,2013-07-17 22:35:00,
2013-07-17 18:40:00,85.5,76.7,30.09,NW,312,3.0,3.0,75,0.00,,,0.00,Wunderground v.1.15,2013-07-17 22:40:00,
2013-07-17 18:50:00,85.6,76.8,30.09,SSW,198,2.0,8.0,75,0.00,,,0.00,Wunderground v.1.15,2013-07-17 22:50:00,
2013-07-17 18:55:00,85.6,76.4,30.09,South,186,2.0,8.0,74,0.00,,,0.00,Wunderground v.1.15,2013-07-17 22:55:00,
2013-07-17 19:00:00,85.4,76.2,30.09,WNW,295,2.0,8.0,74,0.00,,,0.00,Wunderground v.1.15,2013-07-17 23:00:00,
2013-07-17 19:05:00,85.3,76.5,30.09,South,170,3.0,8.0,75,0.00,,,0.00,Wunderground v.1.15,2013-07-17 23:05:00,
2013-07-17 19:10:00,85.2,76.4,30.09,SW,229,2.0,8.0,75,0.00,,,0.00,Wunderground v.1.15,2013-07-17 23:10:00,
2013-07-17 19:15:00,84.8,76.0,30.09,SSW,200,3.0,8.0,75,0.00,,,0.00,Wunderground v.1.15,2013-07-17 23:15:00,
2013-07-17 19:20:00,84.5,76.1,30.09,SE,128,3.0,8.0,76,0.00,,,0.00,Wunderground v.1.15,2013-07-17 23:20:00,
2013-07-17 19:25:00,84.1,75.7,30.09,SW,225,3.0,8.0,76,0.00,,,0.00,Wunderground v.1.15,2013-07-17 23:25:00,
2013-07-17 19:30:00,83.8,75.4,30.09,SSW,207,4.0,8.0,76,0.00,,,0.00,Wunderground v.1.15,2013-07-17 23:30:00,
2013-07-17 19:35:00,83.7,75.7,30.10,SSE,148,4.0,8.0,77,0.00,,,0.00,Wunderground v.1.15,2013-07-17 23:35:00,
2013-07-17 19:40:00,83.5,75.5,30.10,WNW,284,4.0,4.0,77,0.00,,,0.00,Wunderground v.1.15,2013-07-17 23:40:00,
2013-07-17 19:45:00,83.5,75.9,30.10,SSW,200,3.0,8.0,78,0.00,,,0.00,Wunderground v.1.15,2013-07-17 23:45:00,
2013-07-17 19:50:00,83.5,75.5,30.10,SW,218,3.0,8.0,77,0.00,,,0.00,Wunderground v.1.15,2013-07-17 23:50:00,
2013-07-17 19:55:00,83.5,75.9,30.10,South,191,3.0,8.0,78,0.00,,,0.00,Wunderground v.1.15,2013-07-17 23:55:00,
2013-07-17 20:00:00,83.3,75.7,30.10,NW,310,3.0,7.0,78,0.00,,,0.00,Wunderground v.1.15,2013-07-18 00:00:00,
2013-07-17 20:05:00,83.0,75.4,30.09,SW,227,3.0,7.0,78,0.00,,,0.00,Wunderground v.1.15,2013-07-18 00:05:00,
2013-07-17 20:10:00,82.8,75.2,30.10,SW,219,3.0,7.0,78,0.00,,,0.00,Wunderground v.1.15,2013-07-18 00:10:00,
2013-07-17 20:15:00,82.6,75.0,30.10,SW,235,3.0,7.0,78,0.00,,,0.00,Wunderground v.1.15,2013-07-18 00:15:00,
2013-07-17 20:20:00,82.5,74.9,30.10,SSE,148,2.0,2.0,78,0.00,,,0.00,Wunderground v.1.15,2013-07-18 00:20:00,
2013-07-17 20:25:00,82.4,74.8,30.10,WSW,257,1.0,7.0,78,0.00,,,0.00,Wunderground v.1.15,2013-07-18 00:25:00,
2013-07-17 20:30:00,82.4,75.2,30.10,WSW,238,1.0,1.0,79,0.00,,,0.00,Wunderground v.1.15,2013-07-18 00:30:00,
2013-07-17 20:35:00,82.3,75.1,30.10,SE,125,1.0,7.0,79,0.00,,,0.00,Wunderground v.1.15,2013-07-18 00:35:00,
2013-07-17 20:40:00,82.2,75.4,30.10,SW,231,0.0,7.0,80,0.00,,,0.00,Wunderground v.1.15,2013-07-18 00:40:00,
2013-07-17 20:45:00,82.1,75.3,30.10,SSW,208,0.0,7.0,80,0.00,,,0.00,Wunderground v.1.15,2013-07-18 00:45:00,
2013-07-17 20:50:00,82.0,75.2,30.10,SW,229,0.0,7.0,80,0.00,,,0.00,Wunderground v.1.15,2013-07-18 00:50:00,
2013-07-17 20:55:00,81.9,75.1,30.10,WSW,248,0.0,7.0,80,0.00,,,0.00,Wunderground v.1.15,2013-07-18 00:55:00,
2013-07-17 21:00:00,81.8,75.0,30.10,WNW,300,0.0,6.0,80,0.00,,,0.00,Wunderground v.1.15,2013-07-18 01:00:00,
2013-07-17 21:10:00,81.9,75.5,30.11,WNW,294,0.0,6.0,81,0.00,,,0.00,Wunderground v.1.15,2013-07-18 01:10:00,
2013-07-17 21:15:00,81.7,75.3,30.11,NE,48,0.0,6.0,81,0.00,,,0.00,Wunderground v.1.15,2013-07-18 01:15:00,
2013-07-17 21:20:00,81.7,75.3,30.11,NW,315,1.0,1.0,81,0.00,,,0.00,Wunderground v.1.15,2013-07-18 01:20:00,
2013-07-17 21:25:00,81.8,75.8,30.11,SSE,163,1.0,6.0,82,0.00,,,0.00,Wunderground v.1.15,2013-07-18 01:25:00,
2013-07-17 21:35:00,81.5,75.1,30.11,WSW,246,0.0,6.0,81,0.00,,,0.00,Wunderground v.1.15,2013-07-18 01:35:00,
2013-07-17 21:40:00,81.5,75.5,30.11,SSE,167,0.0,6.0,82,0.00,,,0.00,Wunderground v.1.15,2013-07-18 01:40:00,
2013-07-17 21:45:00,81.4,75.4,30.11,South,184,0.0,6.0,82,0.00,,,0.00,Wunderground v.1.15,2013-07-18 01:45:00,
2013-07-17 21:50:00,81.3,75.3,30.12,South,183,0.0,6.0,82,0.00,,,0.00,Wunderground v.1.15,2013-07-18 01:50:00,
2013-07-17 21:55:00,81.2,75.2,30.12,South,186,0.0,6.0,82,0.00,,,0.00,Wunderground v.1.15,2013-07-18 01:55:00,
2013-07-17 22:00:00,81.0,75.0,30.12,South,186,0.0,4.0,82,0.00,,,0.00,Wunderground v.1.15,2013-07-18 02:00:00,
2013-07-17 22:05:00,81.0,75.3,30.12,South,186,0.0,4.0,83,0.00,,,0.00,Wunderground v.1.15,2013-07-18 02:05:00,
2013-07-17 22:10:00,80.9,75.2,30.12,South,186,0.0,4.0,83,0.00,,,0.00,Wunderground v.1.15,2013-07-18 02:10:00,
2013-07-17 22:15:00,80.7,75.1,30.12,South,186,0.0,4.0,83,0.00,,,0.00,Wunderground v.1.15,2013-07-18 02:15:00,
2013-07-17 22:20:00,80.7,75.1,30.12,South,186,0.0,4.0,83,0.00,,,0.00,Wunderground v.1.15,2013-07-18 02:20:00,
2013-07-17 22:25:00,80.7,75.1,30.12,SW,233,0.0,4.0,83,0.00,,,0.00,Wunderground v.1.15,2013-07-18 02:25:00,
2013-07-17 22:30:00,80.7,75.1,30.12,WSW,240,0.0,4.0,83,0.00,,,0.00,Wunderground v.1.15,2013-07-18 02:30:00,
2013-07-17 22:35:00,80.8,75.5,30.11,NW,309,0.0,4.0,84,0.00,,,0.00,Wunderground v.1.15,2013-07-18 02:35:00,
2013-07-17 22:40:00,80.4,75.1,30.11,NW,309,0.0,4.0,84,0.00,,,0.00,Wunderground v.1.15,2013-07-18 02:40:00,
2013-07-17 22:45:00,79.9,75.0,30.11,NW,309,0.0,4.0,85,0.00,,,0.00,Wunderground v.1.15,2013-07-18 02:45:00,
2013-07-17 22:50:00,79.7,74.8,30.11,NW,309,0.0,4.0,85,0.00,,,0.00,Wunderground v.1.15,2013-07-18 02:50:00,
2013-07-17 22:55:00,79.4,74.5,30.11,NW,309,0.0,4.0,85,0.00,,,0.00,Wunderground v.1.15,2013-07-18 02:55:00,
2013-07-17 23:00:00,79.4,74.8,30.12,NW,309,0.0,2.0,86,0.00,,,0.00,Wunderground v.1.15,2013-07-18 03:00:00,
2013-07-17 23:05:00,79.6,75.0,30.11,NW,309,0.0,2.0,86,0.00,,,0.00,Wunderground v.1.15,2013-07-18 03:05:00,
2013-07-17 23:10:00,79.5,74.9,30.11,NW,309,0.0,2.0,86,0.00,,,0.00,Wunderground v.1.15,2013-07-18 03:10:00,
2013-07-17 23:15:00,79.3,75.1,30.11,NW,309,0.0,2.0,87,0.00,,,0.00,Wunderground v.1.15,2013-07-18 03:15:00,
2013-07-17 23:20:00,79.2,75.0,30.11,NW,309,0.0,2.0,87,0.00,,,0.00,Wunderground v.1.15,2013-07-18 03:20:00,
2013-07-17 23:25:00,79.1,74.9,30.11,NW,309,0.0,2.0,87,0.00,,,0.00,Wunderground v.1.15,2013-07-18 03:25:00,
2013-07-17 23:30:00,79.0,74.8,30.11,NW,309,0.0,2.0,87,0.00,,,0.00,Wunderground v.1.15,2013-07-18 03:30:00,
2013-07-17 23:35:00,78.9,74.7,30.11,NW,315,0.0,2.0,87,0.00,,,0.00,Wunderground v.1.15,2013-07-18 03:35:00,
2013-07-17 23:40:00,78.8,74.6,30.11,NW,315,0.0,2.0,87,0.00,,,0.00,Wunderground v.1.15,2013-07-18 03:40:00,
2013-07-17 23:45:00,78.7,74.8,30.11,NW,315,0.0,2.0,88,0.00,,,0.00,Wunderground v.1.15,2013-07-18 03:45:00,
2013-07-17 23:50:00,78.6,74.7,30.10,NW,315,0.0,2.0,88,0.00,,,0.00,Wunderground v.1.15,2013-07-18 03:50:00,
2013-07-17 23:55:00,78.6,74.7,30.10,NW,315,0.0,2.0,88,0.00,,,0.00,Wunderground v.1.15,2013-07-18 03:55:00,